GFSNGP_con_lsi_057.txt.gz
Lid_Strength_Index
12 11 11 11 11 10 11 11 14 13 12 11 9 9 8 7 7 7 8 7 7 6 6 5 5 4 3 3 3 2 3 3 3 2 2 2 3 3 2 2 2 2 2 2
14 11 11 12 11 10 10 11 12 13 12 8 7 7 7 7 7 8 7 6 6 5 5 5 5 4 4 3 3 3 3 3 2 2 2 2 3 3 2 2 2 2 2 2
17 12 12 16 13 12 12 11 11 15 11 8 9 8 8 7 7 7 6 5 6 6 5 4 4 4 4 3 3 3 3 3 2 2 2 3 2 2 3 3 2 2 2 2
17 15 21 13 9 10 11 10 10 10 9 8 8 7 6 6 7 6 6 5 6 5 4 4 3 3 3 3 3 3 3 3 2 2 2 2 2 2 2 2 2 2 2 3
17 18 14 13 11 12 13 13 9 10 9 8 7 7 7 5 5 5 5 5 5 5 4 3 3 3 3 3 3 3 3 3 2 2 3 3 3 2 2 2 3 3 2 4
15 18 21 14 10 8 9 15 9 9 9 9 8 12 9 6 5 5 5 6 4 4 3 3 3 3 4 3 3 3 3 3 2 2 2 2 2 2 2 2 2 2 2 2
16 17 15 10 9 7 16 15 9 8 8 8 9 8 6 6 5 5 5 5 5 4 4 4 3 3 4 3 3 3 2 2 2 2 2 2 2 2 2 2 2 2 2 3
16 17 19 8 9 13 10 8 7 7 7 9 8 7 6 6 6 6 6 6 5 4 4 3 3 3 4 4 3 2 2 2 2 2 2 2 2 2 2 2 3 4 3 2
14 14 8 7 8 7 7 8 7 8 8 8 8 7 7 7 7 7 6 5 5 5 4 3 3 3 4 3 2 2 2 3 3 2 2 2 2 3 3 2 3 3 3 3
12 9 9 8 7 6 6 7 7 7 9 8 8 7 7 7 7 6 5 4 5 5 4 4 3 3 3 2 2 2 3 3 3 3 3 2 2 2 3 3 3 3 3 3
11 9 8 8 7 6 7 6 7 7 8 7 7 7 8 8 7 6 5 4 4 4 4 4 3 3 2 2 2 3 3 3 3 3 3 6 8 8 4 5 5 3 3 2
13 8 8 8 6 6 6 8 8 9 9 7 7 7 7 7 6 6 5 4 4 4 4 4 3 3 2 2 2 3 3 3 3 3 4 4 5 7 13 13 12 10 8 4
8 6 7 6 5 5 8 8 8 8 8 7 6 6 6 6 5 4 4 4 4 4 4 3 3 3 2 2 2 2 3 3 3 3 3 3 4 5 5 8 13 13 13 11
5 6 7 6 8 7 8 7 8 8 7 6 6 6 6 5 4 4 4 4 3 3 3 3 3 3 2 2 2 2 2 6 3 3 3 3 3 3 3 4 5 6 12 12
5 6 6 7 7 8 7 9 9 9 8 8 7 7 7 6 6 5 4 3 3 3 3 3 3 3 2 2 2 2 3 3 3 2 2 3 2 3 3 3 5 6 7 10
5 6 6 8 8 9 9 9 10 9 9 8 9 9 9 7 6 5 5 3 4 5 3 3 3 2 2 2 2 2 2 6 4 2 3 3 3 3 3 3 4 5 5 7
8 8 8 9 9 10 10 10 9 9 9 9 10 10 10 9 9 9 7 6 5 7 8 7 6 2 2 2 2 2 3 4 8 2 3 3 3 3 3 3 3 3 4 6
6 6 8 9 9 9 10 10 9 10 10 10 10 11 12 12 11 11 11 9 7 8 10 9 9 3 2 2 3 3 3 2 2 2 2 3 3 2 3 3 3 3 4 6
6 7 8 9 9 9 10 10 9 9 10 11 11 12 13 14 13 11 12 13 13 12 12 10 12 6 4 7 6 3 2 2 2 3 2 7 3 3 3 3 3 3 3 3
6 6 7 9 8 9 9 10 10 11 11 12 11 13 13 14 14 13 12 14 15 14 11 11 10 6 5 5 6 2 3 3 3 3 3 3 3 3 3 6 3 3 3 3
5 6 7 9 9 9 9 10 11 12 12 12 14 14 14 14 14 14 14 15 15 14 12 11 10 8 8 8 3 2 2 3 3 3 3 4 3 3 3 3 2 2 2 2
5 6 6 8 9 9 10 11 11 12 12 12 13 13 15 15 15 14 14 15 14 16 13 12 11 13 11 11 7 5 4 4 4 5 5 5 4 5 5 4 4 5 6 7
5 5 5 7 9 10 10 11 11 12 12 13 14 14 14 15 15 15 15 14 14 15 13 14 16 15 14 10 9 9 9 9 8 9 9 9 10 10 10 10 10 10 10 9
5 5 4 5 7 9 10 11 11 12 12 13 13 13 14 15 14 14 13 15 16 14 15 16 16 16 14 12 11 11 10 10 11 10 11 12 11 11 12 12 13 12 13 13
4 4 5 5 6 8 9 10 11 11 12 13 13 13 13 12 13 13 12 13 14 13 13 15 16 15 13 13 13 13 12 11 11 12 12 12 12 13 12 13 13 14 14 14
4 5 5 5 6 6 7 9 10 11 12 13 13 13 12 12 12 12 12 13 12 13 13 13 13 13 14 14 14 14 13 13 13 13 13 13 13 13 14 14 14 14 15 15
4 5 6 6 6 6 7 8 9 11 12 12 12 12 12 12 12 12 13 12 12 12 13 13 13 13 13 13 14 14 14 15 15 14 14 15 15 15 15 15 15 15 15 15

GFSNGP_con_lsi_060.txt.gz
Lid_Strength_Index
12 12 11 12 12 12 13 12 16 13 14 12 10 9 8 7 7 7 6 6 7 6 5 5 5 4 4 3 3 3 3 3 4 3 4 4 4 4 3 2 2 3 3 2
14 11 11 13 11 11 11 12 13 13 13 9 8 7 8 7 7 7 6 6 5 5 5 5 5 4 4 4 3 3 3 3 3 3 3 4 4 5 5 4 4 4 3 3
17 12 13 16 13 13 12 11 12 15 12 9 9 9 8 8 7 7 6 6 6 6 5 5 4 4 4 3 3 3 3 3 3 3 3 3 4 3 4 4 4 4 4 4
16 15 20 13 10 10 11 10 10 10 10 9 9 8 7 7 7 7 7 7 6 6 5 4 3 3 3 3 3 3 3 3 3 3 3 3 3 3 3 3 3 3 4 4
17 18 14 13 11 12 13 13 9 10 9 8 8 7 8 5 6 7 7 7 6 6 5 3 3 3 3 3 5 3 3 3 3 3 3 3 3 3 3 2 2 2 3 5
16 19 22 13 10 8 9 16 9 9 9 9 9 12 10 7 7 7 7 7 6 6 5 4 3 3 3 4 4 4 3 3 3 3 3 3 3 3 2 2 2 2 4 5
16 17 15 10 9 8 16 14 9 9 9 9 10 9 8 7 7 7 7 7 6 6 6 5 3 3 4 4 4 3 2 3 3 2 3 2 3 2 3 2 2 3 4 5
15 17 19 8 9 13 10 8 8 8 7 7 8 8 8 9 8 8 7 7 6 6 5 5 3 3 4 4 3 3 3 2 2 3 2 2 2 3 2 3 3 4 3 3
14 14 9 8 8 7 8 8 7 7 8 9 8 9 9 9 8 8 7 7 6 6 5 4 3 3 4 3 3 2 3 3 3 2 2 2 3 3 3 3 3 3 3 3
12 10 9 8 6 7 6 7 7 8 9 8 9 9 9 8 8 8 7 7 6 5 5 4 3 3 3 2 2 3 3 3 3 3 3 3 2 2 3 3 4 3 3 3
11 9 8 7 7 6 6 6 7 8 9 9 9 8 8 8 8 8 8 7 6 5 5 4 3 3 2 2 2 3 3 3 3 3 4 6 8 6 3 4 4 3 4 3
13 8 9 8 6 6 7 7 7 9 8 8 8 8 8 8 7 7 7 6 6 4 4 4 3 3 2 2 2 3 3 3 3 4 5 6 6 8 14 13 12 11 8 4
8 6 6 6 5 5 6 8 8 8 8 9 8 7 7 7 6 5 5 5 4 4 3 3 3 3 2 2 2 3 3 3 4 4 4 5 5 5 7 11 14 13 10 10
5 6 7 6 8 7 8 8 8 8 7 7 6 5 6 6 5 4 4 4 3 3 3 3 3 3 2 2 2 2 3 6 3 3 4 4 5 5 5 5 6 7 12 12
6 6 7 7 8 8 8 9 9 9 8 7 6 7 7 7 6 5 4 3 3 3 3 3 3 3 2 2 2 3 3 3 2 3 3 4 4 4 4 5 6 8 8 11
6 6 8 8 9 9 8 10 10 9 9 8 8 8 9 8 7 7 7 5 4 5 4 3 3 3 2 2 2 2 2 6 4 3 3 3 3 3 4 5 5 5 5 7
9 9 9 9 9 9 10 10 9 10 9 10 9 10 10 10 10 10 10 9 7 7 6 7 8 7 3 2 2 2 3 4 9 3 3 3 3 3 4 4 4 4 5 6
7 7 8 9 9 10 10 9 9 9 10 10 10 11 11 12 12 12 11 11 8 8 10 9 9 11 6 2 2 2 2 2 3 3 3 3 3 3 4 4 4 5 5 6
7 7 7 8 9 9 10 10 9 10 10 11 11 12 12 13 13 12 12 12 13 10 11 10 12 8 4 7 5 3 3 3 3 3 3 7 3 3 3 3 4 4 4 5
7 6 7 9 8 9 10 10 11 10 11 11 12 12 14 14 13 13 12 13 14 14 11 11 9 7 7 6 8 3 3 2 3 3 3 3 3 3 4 7 4 3 3 4
6 6 7 9 9 9 10 10 11 13 12 11 13 14 14 14 14 15 15 14 14 15 12 11 10 8 9 7 4 3 3 3 3 3 3 3 3 3 4 3 3 3 3 4
6 6 7 8 9 10 10 11 11 12 13 13 13 14 15 15 15 14 13 14 14 16 13 12 12 14 11 12 6 6 6 6 6 5 3 3 3 4 4 3 3 4 6 7
6 5 6 7 10 10 11 11 12 12 13 13 13 14 14 14 14 15 15 13 14 15 13 13 15 14 13 9 9 9 9 9 9 8 8 8 9 10 10 9 8 9 10 11
5 5 6 6 8 10 12 11 12 12 13 13 13 13 14 14 14 13 13 14 15 15 15 15 14 14 13 11 10 11 10 10 11 11 11 12 12 12 12 12 13 13 14 14
6 6 6 7 8 11 11 11 11 12 12 12 12 13 12 12 13 13 13 14 15 14 14 15 15 15 13 12 12 12 12 12 12 11 12 13 13 13 13 13 14 14 14 14
5 7 8 7 7 7 10 11 12 12 12 13 13 13 12 11 12 12 13 13 13 14 13 14 14 14 14 14 14 14 14 14 13 13 13 13 14 14 14 14 14 15 15 15
4 6 7 8 8 8 8 10 12 13 12 12 13 12 12 12 12 12 13 12 13 13 13 13 12 14 14 14 15 15 15 15 15 15 15 15 15 15 15 15 15 15 16 16

GFSNGP_con_lsi_063.txt.gz
Lid_Strength_Index
12 11 11 12 13 12 14 13 16 14 14 11 10 10 9 7 7 7 7 6 6 5 5 6 4 4 4 3 3 3 3 3 3 3 2 2 2 2 2 2 3 2 2 2
15 12 12 14 12 11 11 12 13 13 13 9 8 8 8 7 7 7 7 7 6 5 5 5 5 4 4 3 3 3 3 3 3 3 3 2 2 2 3 3 3 2 3 3
17 12 13 16 13 12 12 11 12 15 11 9 9 9 8 8 7 7 7 7 7 6 6 6 6 4 4 3 4 4 3 3 3 3 4 4 4 4 3 4 3 4 5 4
16 14 21 13 10 10 11 11 10 10 10 9 8 8 7 7 7 7 8 8 7 7 7 7 6 6 3 3 4 5 3 3 3 3 4 4 4 5 5 5 5 6 5 5
17 18 15 12 12 12 13 13 9 10 9 8 8 8 8 6 6 7 8 8 8 6 6 6 6 4 3 3 3 4 4 3 3 3 4 4 5 6 5 5 6 6 5 5
16 19 21 15 10 8 9 16 9 9 9 9 8 12 10 7 6 7 8 8 8 7 7 6 6 5 3 4 3 4 5 3 2 2 3 4 4 4 4 3 4 4 5 5
16 17 15 10 9 8 16 14 9 9 9 9 10 9 8 7 7 8 8 8 7 7 7 6 5 5 4 4 4 3 2 2 2 3 3 3 4 3 3 3 4 4 5 5
15 17 19 9 9 13 10 8 9 8 8 9 8 8 8 8 8 8 8 8 7 8 7 6 5 4 4 4 3 2 2 3 3 3 3 3 3 3 2 3 4 5 5 5
14 14 10 8 9 7 6 7 7 8 7 8 9 9 8 8 8 8 8 8 8 7 7 5 5 3 4 3 3 4 3 3 4 4 3 3 3 3 3 3 3 4 4 5
12 10 9 8 7 6 6 7 7 7 8 9 10 9 8 9 8 8 7 8 8 7 6 6 5 3 3 3 4 3 3 3 3 3 3 3 2 3 3 3 3 3 4 4
12 9 8 7 7 6 7 6 7 7 8 9 9 8 8 8 8 8 7 8 7 7 7 6 5 3 2 3 2 3 3 3 3 3 3 5 7 5 3 4 4 3 3 3
12 8 8 8 6 6 6 6 7 8 9 8 8 9 8 8 7 7 7 7 6 6 5 5 3 3 3 2 2 3 4 3 3 4 4 5 6 8 14 13 12 11 9 5
9 6 6 6 5 6 7 8 8 8 8 9 8 8 7 7 7 6 6 5 5 5 5 4 3 3 2 3 2 3 3 4 4 5 4 5 5 5 7 10 13 13 12 11
5 6 7 7 8 8 8 8 7 8 8 8 8 7 7 7 7 6 6 5 4 4 4 3 3 3 2 2 2 3 3 8 4 4 4 4 4 4 5 5 5 6 12 11
5 6 7 8 9 9 8 8 9 9 8 9 8 8 7 8 8 6 5 5 4 4 3 3 3 3 2 2 2 3 3 3 3 3 4 5 5 5 5 5 5 7 9 11
6 7 8 9 9 8 8 9 10 10 9 8 9 8 9 8 8 7 7 7 5 5 4 3 3 3 3 3 2 2 3 8 5 3 4 4 5 5 5 6 6 5 5 8
8 9 9 10 10 9 10 9 10 9 9 9 9 9 10 10 10 9 9 8 6 6 6 7 7 6 5 4 2 2 4 4 9 3 4 4 4 5 4 5 5 5 6 7
7 8 9 10 10 9 9 9 9 10 10 10 11 12 12 12 12 11 12 10 7 9 8 7 8 7 6 5 2 3 3 3 3 3 3 3 4 4 4 4 4 5 6 9
7 8 9 9 9 9 9 10 10 10 11 10 11 12 13 12 13 13 11 12 12 10 11 8 10 6 4 5 4 2 2 3 3 3 3 8 4 4 4 4 5 5 5 6
7 7 8 9 9 10 11 11 10 11 10 11 12 14 13 13 13 13 13 14 14 13 11 9 8 8 7 6 8 3 3 3 3 3 3 3 4 4 5 7 5 4 4 4
7 7 9 9 10 10 10 11 11 12 12 12 13 14 14 13 13 13 15 14 14 14 11 11 10 10 8 9 5 4 3 3 3 3 3 3 4 4 4 4 4 4 4 6
6 7 9 9 10 11 11 11 12 11 12 13 13 13 14 14 14 13 13 15 14 15 12 12 11 15 12 12 7 6 5 4 3 3 3 3 4 4 4 3 4 5 7 9
6 6 7 9 10 11 11 11 12 11 12 13 13 14 14 14 13 15 16 14 14 15 12 12 15 15 14 9 8 9 9 8 8 7 7 7 7 7 7 8 9 10 11 12
6 6 7 7 10 11 12 11 11 12 12 12 12 13 13 14 14 12 13 14 15 15 15 15 15 15 12 10 10 9 9 10 10 9 10 11 10 11 11 12 13 13 13 14
7 7 6 7 9 11 12 12 11 11 12 13 12 12 12 12 13 13 13 13 15 14 14 15 16 15 13 12 12 12 12 11 11 12 11 12 11 12 13 13 13 13 13 13
5 8 7 7 8 10 12 12 13 12 12 12 13 12 12 12 11 12 13 14 13 14 14 15 14 15 15 15 14 15 14 14 13 13 12 12 13 13 14 14 14 14 15 15
5 7 7 9 8 8 10 12 12 13 12 12 12 12 12 12 12 12 13 13 13 13 14 14 15 15 15 15 15 15 15 16 16 15 15 15 15 15 16 16 16 16 16 16

GFSNGP_con_lsi_069.txt.gz
Lid_Strength_Index
11 10 10 11 11 10 12 11 15 12 12 9 8 7 7 6 5 5 5 5 4 4 3 3 3 2 2 2 3 3 4 5 5 2 1 1 1 1 1 1 1 1 1 1
12 10 11 13 11 11 11 10 11 11 11 7 6 6 6 6 6 6 5 5 4 4 4 4 3 3 3 4 4 3 4 6 5 2 2 2 1 1 1 1 1 1 1 1
15 11 11 14 11 10 10 9 10 13 10 7 7 7 6 6 5 6 5 4 4 4 4 4 4 5 5 5 4 4 4 5 5 2 2 2 2 2 2 2 2 2 1 1
15 14 19 10 8 8 10 9 8 8 8 7 7 6 6 5 5 5 5 4 4 4 5 5 5 6 5 5 4 4 7 5 4 2 2 2 2 2 2 2 2 2 2 1
16 17 12 11 9 11 11 11 7 8 8 7 6 6 6 4 4 4 4 4 4 4 5 6 6 5 6 6 5 5 6 4 4 3 3 3 3 2 2 2 2 2 2 2
15 18 20 12 9 7 8 14 8 8 8 7 7 12 9 5 4 4 4 3 4 4 6 6 6 6 6 6 5 5 4 2 2 3 3 3 2 2 2 2 2 2 3 1
15 16 13 9 8 7 15 12 7 6 7 7 9 8 6 4 4 3 3 4 4 5 6 6 6 6 6 5 5 4 3 2 2 2 2 2 2 2 2 2 2 4 5 4
14 16 17 8 8 12 8 6 6 6 6 7 6 6 5 5 4 4 5 5 5 5 6 6 5 6 6 6 4 4 2 2 2 2 2 2 3 3 3 2 4 5 4 4
13 13 7 6 7 5 5 7 7 7 6 6 7 6 5 5 5 6 6 6 6 6 6 5 5 5 6 6 5 4 2 3 2 2 2 2 3 4 3 3 4 4 3 3
10 8 7 6 5 5 5 6 5 5 5 5 6 6 7 7 7 7 7 7 6 7 7 6 5 4 5 5 4 2 3 3 3 3 3 2 2 2 3 3 3 3 3 3
10 8 8 7 6 5 5 5 5 5 6 7 7 7 8 8 8 8 8 7 7 7 7 6 5 5 4 3 3 3 3 3 3 3 3 4 5 2 2 1 2 2 2 2
12 8 9 8 5 5 5 7 7 7 8 7 8 8 8 9 8 8 8 7 7 6 6 5 4 5 3 3 2 3 3 3 3 4 5 4 4 6 13 11 11 10 8 4
8 6 6 5 4 5 7 7 7 8 8 9 8 8 8 8 8 7 8 7 7 6 5 5 4 4 3 4 3 3 3 3 3 5 4 3 3 3 6 10 13 13 12 11
5 5 6 6 7 6 7 6 7 8 8 8 8 9 9 8 8 8 8 8 7 7 6 5 5 5 3 3 2 2 2 7 3 3 3 2 2 3 3 4 4 5 12 10
5 5 5 6 6 7 6 7 8 9 9 9 9 9 9 9 9 9 8 8 7 7 7 7 6 6 4 2 2 2 3 3 2 2 2 3 2 3 3 3 3 5 7 10
5 5 6 7 8 7 7 9 10 10 10 10 10 10 9 9 9 9 9 8 8 9 8 6 5 3 2 2 2 2 2 7 4 2 3 3 3 3 3 3 3 3 3 6
7 7 8 8 8 8 8 9 10 10 10 10 10 9 9 10 10 10 10 9 10 8 8 8 5 4 2 2 2 2 2 2 8 2 3 3 3 3 3 3 3 3 4 7
4 6 7 8 8 8 9 10 10 10 10 10 10 10 11 11 12 12 11 9 10 8 10 11 8 6 2 2 2 2 2 2 2 2 2 3 3 3 3 3 4 4 6 9
4 7 7 8 8 9 11 12 12 11 11 12 12 12 12 12 12 13 10 12 13 12 12 11 12 5 2 4 3 2 2 2 2 3 3 6 3 3 3 4 5 5 6 4
4 7 7 8 8 9 10 11 11 11 11 11 12 12 12 13 13 13 12 13 14 13 13 10 8 3 2 3 6 2 2 2 3 3 3 3 3 3 4 7 4 4 4 3
5 7 8 8 9 9 10 11 11 12 12 12 12 13 13 13 14 14 15 15 14 13 12 11 8 5 3 3 2 2 2 2 2 3 3 3 4 4 4 4 4 4 5 6
5 7 9 9 9 9 10 11 11 12 13 13 13 13 14 15 15 14 14 15 14 16 12 11 9 12 7 12 1 2 2 2 2 3 4 3 4 3 4 5 6 6 7 9
5 7 8 9 9 9 10 10 11 11 13 13 13 14 14 14 15 16 16 15 14 16 14 14 14 14 14 3 2 2 2 2 3 3 3 3 3 5 6 7 8 9 10 11
6 6 7 9 9 10 11 11 11 11 12 13 13 13 14 15 15 14 13 15 16 15 16 16 14 14 13 8 7 7 6 6 7 7 8 11 8 9 9 11 11 12 12 13
6 5 7 8 10 11 11 10 11 12 12 14 14 14 13 13 15 14 14 15 16 16 15 16 16 15 12 11 10 10 10 9 9 9 9 9 10 11 11 11 12 13 13 14
7 6 5 6 7 10 11 10 10 11 12 13 14 13 13 13 14 14 14 15 16 17 16 16 15 14 14 14 13 13 12 11 11 12 12 12 12 12 13 13 14 14 15 16
8 8 7 6 6 7 10 11 11 11 12 13 13 13 13 14 14 14 14 14 15 16 16 16 16 16 15 15 15 15 15 15 15 14 14 15 14 14 14 14 15 15 16 16

GFSNGP_con_lsi_072.txt.gz
Lid_Strength_Index
9 9 9 10 10 10 12 11 14 11 10 8 6 6 5 4 4 4 4 4 3 3 3 2 2 2 1 1 1 1 1 1 1 1 1 1 1 1 1 1 1 1 1 1
11 9 9 11 9 9 9 9 9 9 9 6 5 5 5 5 5 5 4 4 3 3 3 2 2 2 1 1 1 1 1 1 1 1 2 2 1 1 1 1 1 1 1 1
14 10 11 13 10 9 8 8 8 11 8 6 6 6 5 5 5 5 4 4 3 3 3 2 2 2 2 2 1 2 2 1 1 1 2 3 1 1 2 2 1 1 1 1
14 12 19 9 7 7 8 8 7 7 6 6 6 5 5 4 4 4 4 4 3 3 2 2 1 1 2 3 4 4 3 2 1 2 3 3 2 2 2 1 1 2 1 1
16 16 11 10 8 9 10 10 6 7 6 6 5 6 5 3 3 4 4 3 3 2 2 1 2 2 4 5 6 5 4 2 2 2 3 4 2 2 2 2 2 2 1 1
15 18 19 12 8 6 7 12 7 7 7 7 6 9 7 4 4 4 3 3 3 2 2 2 2 3 5 5 5 4 3 3 2 3 4 4 2 2 2 2 2 2 2 1
14 16 12 8 7 6 14 12 6 6 6 6 9 7 5 4 4 3 3 2 2 2 3 3 3 4 5 5 5 5 4 2 3 4 3 2 2 2 2 2 2 2 2 2
14 16 17 7 7 11 8 6 6 6 6 6 5 5 4 4 3 3 3 3 3 4 4 4 4 5 5 5 4 4 3 4 3 3 2 2 2 2 2 2 3 3 3 2
11 11 6 5 6 6 6 7 6 6 5 5 5 5 5 5 5 5 4 4 4 5 5 5 5 5 5 4 4 3 4 3 3 2 2 2 3 3 3 3 3 3 3 4
10 8 7 7 5 5 5 5 4 4 5 5 6 6 6 5 6 6 6 6 6 6 6 6 5 5 4 4 4 4 3 3 2 3 3 2 3 3 3 3 3 3 3 3
9 7 8 6 5 5 5 4 4 5 6 6 7 8 8 8 8 7 7 7 7 7 7 6 5 4 3 3 3 2 3 3 3 3 3 3 4 3 3 2 3 3 3 2
12 8 9 8 5 4 5 5 5 7 7 8 8 8 8 8 7 7 8 7 7 7 7 6 5 4 3 2 1 2 3 3 3 4 5 4 4 6 12 9 10 10 8 3
10 8 7 5 4 4 6 6 6 6 7 8 8 8 8 8 8 8 7 7 7 7 6 5 5 4 2 1 2 3 3 3 3 4 3 3 3 4 5 7 12 13 12 10
5 5 6 5 5 5 5 6 5 6 7 8 9 8 8 9 8 8 8 7 7 6 6 5 4 3 2 2 3 2 4 7 3 3 3 3 3 3 3 3 4 4 11 9
5 4 5 4 5 6 6 6 9 9 9 9 9 9 9 9 9 9 8 7 7 7 7 6 4 3 2 3 3 2 3 3 3 3 3 3 2 2 2 2 3 4 6 9
6 5 5 6 7 7 8 9 10 10 10 10 10 9 9 8 8 9 8 8 9 8 7 7 6 3 3 2 2 3 3 6 4 2 2 2 2 3 3 3 2 2 2 5
7 7 7 8 8 8 10 10 10 10 10 10 10 9 9 9 9 10 10 10 10 9 8 8 8 7 5 2 2 2 2 2 6 2 2 3 3 3 2 2 2 2 2 3
4 5 6 8 8 10 10 10 11 11 11 11 10 10 10 10 12 11 11 11 10 10 9 10 10 8 2 2 2 2 2 2 2 2 2 3 3 2 2 2 2 2 3 3
4 6 7 8 8 9 11 11 11 11 11 11 12 12 11 11 12 12 13 12 13 14 12 12 12 6 2 3 2 2 2 3 2 2 2 5 2 2 2 2 2 3 3 4
4 5 7 7 8 9 10 10 10 11 12 12 12 13 13 13 13 13 14 14 13 13 14 12 8 2 2 2 6 2 2 2 2 2 2 2 3 3 3 5 2 3 3 3
4 6 8 8 8 9 10 10 11 12 12 13 13 13 14 15 14 14 15 16 15 14 13 11 7 3 1 2 2 1 2 2 2 2 3 3 3 3 3 3 3 4 4 5
4 6 7 8 8 9 10 10 11 12 14 14 14 14 14 15 15 15 14 16 15 16 13 10 8 12 3 11 1 1 2 2 2 2 2 3 3 3 4 5 6 6 6 6
6 5 7 8 8 9 9 10 11 11 13 14 15 14 16 16 15 16 17 15 15 15 13 12 15 15 13 1 2 2 2 2 2 2 2 2 3 5 6 8 8 9 8 8
6 5 5 6 7 9 10 9 9 11 11 13 15 14 16 16 15 15 15 16 17 16 15 15 14 15 12 5 4 3 3 3 4 5 6 9 6 7 9 9 10 11 12 12
7 7 5 5 7 9 9 10 10 10 10 12 13 14 14 14 15 16 15 15 17 16 15 16 16 15 11 9 9 8 7 7 6 7 7 8 9 9 10 11 12 12 13 12
8 8 6 5 6 7 9 9 11 11 11 12 13 14 14 14 15 15 15 16 16 17 16 15 15 14 13 13 12 11 11 11 10 10 10 11 12 12 13 13 13 13 14 15
9 9 7 6 5 6 7 9 10 11 11 12 12 12 13 14 14 15 17 17 17 17 16 16 15 16 15 15 14 14 14 14 14 12 12 13 13 13 14 14 14 15 15 16

GFSNGP_con_lsi_075.txt.gz
Lid_Strength_Index
9 9 9 10 9 9 11 10 13 11 12 8 7 6 5 4 4 4 4 3 3 3 2 2 2 1 1 1 1 1 1 1 2 1 1 1 1 1 1 1 1 1 1 1
10 9 9 10 9 9 9 9 9 9 9 6 5 5 5 5 4 4 4 4 3 3 2 2 2 2 1 1 1 1 1 1 1 1 1 1 1 1 1 1 1 1 1 1
14 9 10 14 10 9 9 8 8 11 8 6 6 6 5 5 5 5 4 4 3 3 2 2 2 1 2 1 1 1 1 1 1 1 1 1 1 1 1 1 1 1 1 1
14 12 18 9 7 7 8 7 7 7 7 6 6 5 5 4 4 4 3 3 3 3 2 2 1 1 1 1 1 1 1 1 1 1 2 2 1 2 2 1 2 2 2 1
16 15 12 10 8 9 10 10 6 7 7 7 5 5 5 3 3 3 4 3 3 2 2 2 2 1 1 1 1 2 3 3 3 3 3 2 2 2 2 2 2 2 1 1
14 18 18 10 8 6 6 12 7 7 7 6 6 9 6 4 3 3 3 2 3 2 2 2 2 1 2 2 2 3 4 4 4 4 3 2 2 2 2 2 2 2 2 1
14 16 12 8 6 5 14 12 7 6 6 6 8 6 5 4 4 3 3 2 2 2 2 2 1 1 2 2 3 4 4 4 4 3 2 2 2 2 2 2 2 2 2 2
14 16 17 6 7 12 8 6 5 5 6 7 6 5 4 4 3 3 3 3 2 3 2 2 2 2 3 3 3 4 3 3 2 2 2 2 2 2 2 2 3 3 2 3
11 11 6 5 6 5 5 6 5 5 5 5 5 5 4 4 4 4 4 4 3 4 3 3 3 3 5 5 4 4 3 3 2 2 2 2 3 4 4 3 3 3 3 4
10 7 7 6 5 4 4 5 4 4 5 4 5 6 6 6 6 5 5 5 5 5 5 5 5 4 5 4 4 5 4 4 4 4 4 2 4 4 3 3 4 4 3 4
9 7 7 6 5 5 5 5 5 4 4 5 6 7 6 7 7 7 6 6 6 6 6 6 4 5 4 5 5 5 4 4 5 5 4 4 4 3 3 2 3 3 3 3
12 8 8 7 5 5 6 5 5 5 6 5 6 7 7 7 7 7 7 7 6 6 6 6 5 5 5 5 5 4 5 4 4 4 3 4 5 8 14 12 12 11 8 4
10 8 7 6 5 4 5 5 5 5 6 8 7 7 8 8 8 8 8 8 8 7 7 6 6 5 4 4 3 3 3 4 4 4 4 4 5 6 7 10 12 13 11 10
6 6 7 5 6 5 6 6 6 7 7 8 8 8 8 8 8 8 8 8 7 7 7 7 6 5 3 3 2 2 3 7 5 3 3 3 3 3 3 3 4 4 12 10
7 7 5 4 6 7 7 7 9 9 9 9 9 9 8 9 9 8 7 7 7 8 8 7 6 4 3 2 2 2 3 3 3 3 3 3 3 3 3 3 3 5 6 10
7 5 5 6 8 7 9 10 10 10 10 10 10 10 9 9 8 8 8 8 9 9 7 7 6 4 2 2 2 2 3 7 6 3 3 3 3 3 3 3 3 3 4 7
7 7 7 9 9 9 10 11 11 11 11 11 11 10 10 9 9 10 10 9 9 8 7 6 5 3 3 4 2 3 3 3 8 3 3 3 3 3 2 3 3 3 4 5
4 5 6 8 8 10 10 10 11 12 12 12 11 11 11 11 12 11 11 10 9 9 9 7 6 7 6 5 4 4 3 3 3 3 3 3 2 2 2 3 3 3 3 3
4 5 6 8 8 9 10 10 11 12 12 12 13 13 12 12 13 13 12 13 12 13 12 12 12 12 9 6 5 2 2 2 3 2 2 5 3 2 2 3 3 2 2 2
4 4 6 8 7 9 9 10 11 11 12 13 13 14 14 14 15 14 14 15 13 16 13 13 12 4 2 4 6 2 2 2 2 2 2 3 3 3 3 4 2 2 2 2
5 5 6 6 8 9 9 10 10 12 13 14 14 14 14 15 16 15 16 17 15 15 15 12 8 3 2 2 2 2 2 2 3 3 3 3 3 3 3 2 2 2 2 4
5 5 6 6 8 8 9 9 10 10 12 14 15 14 16 17 16 16 15 17 15 17 14 12 10 12 4 10 2 2 2 2 2 3 3 3 3 3 3 3 4 5 4 4
6 6 5 6 7 8 8 8 9 11 11 14 15 16 17 16 17 17 18 15 16 16 14 13 14 15 13 2 2 2 2 2 3 2 2 3 3 5 6 6 6 7 7 8
7 6 5 5 6 7 9 9 8 10 11 12 13 14 15 16 17 16 15 16 17 16 14 16 15 14 11 2 2 2 2 3 3 4 5 9 6 7 8 9 9 9 10 12
8 7 6 5 5 6 7 8 9 9 10 11 12 13 14 15 16 17 16 16 16 16 14 16 15 14 9 7 7 5 5 5 4 5 6 8 9 10 10 11 11 11 12 13
9 9 8 6 5 6 7 7 9 10 10 11 11 12 14 15 16 16 16 16 16 16 15 15 15 13 13 12 11 10 9 9 8 8 9 10 12 13 13 13 13 13 14 14
8 9 8 8 6 6 5 7 8 10 10 11 11 12 13 14 15 16 17 17 17 17 16 15 16 16 15 14 14 13 13 12 13 12 12 12 13 14 15 16 15 15 15 15

GFSNGP_con_lsi_078.txt.gz
Lid_Strength_Index
9 9 9 9 10 9 12 12 14 12 11 9 7 7 7 6 6 5 6 5 4 3 3 2 2 2 2 2 1 1 1 1 1 1 1 1 1 1 1 1 1 1 1 1
10 9 9 10 9 9 9 9 9 9 10 6 6 5 5 6 6 6 5 4 4 3 3 3 2 2 2 2 2 1 2 2 1 1 1 1 1 1 1 1 1 1 1 1
14 10 10 13 10 9 9 9 9 11 8 6 7 7 7 6 5 6 6 5 4 4 3 3 3 2 2 2 1 2 2 2 1 1 1 1 1 1 2 2 1 2 2 2
14 12 18 10 7 7 9 10 8 8 8 8 7 7 6 5 5 6 6 4 4 3 3 3 2 2 2 2 2 2 2 2 2 1 2 1 2 2 2 2 2 2 2 2
16 16 12 10 9 10 12 11 8 9 8 8 7 6 7 5 4 4 4 3 3 3 2 2 2 2 2 2 2 2 2 2 2 2 2 2 2 2 2 2 2 2 2 2
14 18 18 10 8 7 8 14 8 7 7 7 6 10 8 5 4 4 3 3 3 2 2 2 2 2 2 3 3 3 2 2 1 1 2 2 3 3 2 2 2 2 2 2
15 16 12 9 7 6 14 14 7 6 7 7 8 7 5 4 4 3 3 3 2 2 3 2 2 2 3 3 3 2 2 2 2 2 3 4 4 3 3 2 2 2 2 2
14 17 18 7 8 12 9 6 6 6 6 7 6 5 5 4 4 3 3 3 3 3 3 2 2 2 3 3 2 2 2 3 2 3 4 3 4 4 2 2 3 3 3 3
12 12 7 6 7 5 6 7 6 6 6 6 6 6 5 5 4 4 4 4 4 4 4 4 3 3 4 4 3 3 3 4 4 4 3 3 3 3 3 3 3 3 3 4
10 8 7 6 5 5 5 6 5 5 5 5 6 5 5 5 5 5 5 5 5 6 6 5 4 4 4 4 3 4 5 5 5 5 4 2 2 2 3 3 3 3 4 4
9 7 7 6 6 5 5 5 5 5 6 6 6 6 6 6 6 6 6 6 6 7 6 6 5 4 4 4 4 6 6 6 5 5 4 3 3 3 3 2 3 3 3 3
12 8 9 8 6 5 6 6 6 7 7 7 7 8 7 8 8 7 7 7 7 7 7 7 6 6 5 6 6 6 6 6 6 5 4 3 3 3 9 7 8 9 9 4
9 8 8 7 5 5 6 7 6 8 8 8 8 8 8 9 8 7 7 8 8 8 7 7 7 7 7 6 6 6 7 7 6 5 4 4 4 4 5 9 12 14 11 10
6 6 8 6 8 5 6 7 7 8 8 8 9 8 9 9 9 8 8 8 7 8 8 7 7 7 6 6 6 6 5 8 4 3 3 3 3 4 4 4 6 8 13 11
7 6 7 6 6 8 7 8 10 10 10 10 10 9 9 9 9 9 8 8 8 8 8 8 8 7 5 5 5 4 4 4 4 3 3 4 3 3 3 5 7 9 9 11
7 6 5 6 8 9 8 10 11 12 11 11 11 10 10 10 9 9 8 8 9 10 9 8 8 7 5 4 4 4 3 7 7 3 3 3 3 3 4 4 4 4 5 7
9 8 8 8 9 9 9 10 11 11 12 13 13 13 12 11 11 11 10 9 9 10 9 8 7 5 4 4 5 5 3 3 10 3 3 3 3 3 3 3 3 5 5 5
6 5 5 7 7 9 10 10 10 11 12 12 13 14 13 13 13 13 12 12 10 9 8 6 7 7 7 6 6 5 3 3 3 3 3 3 3 3 3 3 3 4 4 7
5 5 5 6 6 8 9 10 11 11 11 13 14 14 13 13 13 13 13 13 12 11 11 10 10 11 9 8 8 5 3 3 3 3 3 6 3 3 3 3 3 3 3 3
5 5 4 5 6 8 9 9 10 11 11 13 14 16 16 16 16 16 15 15 14 15 14 13 12 11 10 8 11 7 3 3 3 3 3 3 3 3 3 5 3 3 3 3
6 5 5 5 6 7 8 8 9 11 11 12 15 16 17 17 17 17 17 17 15 15 15 15 10 5 6 5 7 3 2 3 3 3 3 3 3 3 3 3 3 3 3 4
6 6 6 5 5 7 7 7 8 11 11 12 14 16 17 17 17 18 17 18 16 17 15 12 11 13 5 9 2 2 3 3 3 3 3 3 3 3 3 3 3 5 6 7
7 7 6 6 5 6 7 7 8 10 11 11 14 16 17 17 17 19 18 17 16 17 14 14 15 14 14 2 2 2 2 3 3 3 3 3 3 3 4 5 5 7 9 11
7 8 7 6 5 5 7 7 8 10 10 11 12 14 17 18 17 16 16 16 17 16 15 16 14 14 10 2 2 2 3 3 4 5 6 9 6 6 7 8 9 10 11 13
7 7 7 7 6 6 6 6 7 10 10 11 12 13 15 16 17 16 16 16 17 16 15 16 16 14 9 7 6 5 6 6 7 8 8 9 10 10 10 11 12 12 13 14
7 8 8 7 7 7 6 7 8 10 10 11 12 13 15 16 16 16 16 17 16 17 16 16 16 14 12 12 11 10 9 9 10 11 11 12 12 12 13 14 14 14 15 15
6 8 8 8 8 7 7 7 7 10 10 11 13 13 14 15 17 17 17 16 16 17 16 16 16 16 15 14 14 14 13 12 13 13 13 14 14 15 15 15 16 15 15 16

GFSNGP_con_lsi_084.txt.gz
Lid_Strength_Index
12 11 11 11 11 11 13 12 15 13 12 10 10 10 9 8 7 7 6 5 5 6 4 4 4 3 3 3 4 4 3 5 5 5 4 4 3 4 3 3 3 3 3 2
14 11 11 12 10 10 11 11 11 12 13 10 8 8 8 8 7 7 7 6 5 5 4 4 4 3 3 3 3 3 4 5 4 4 4 4 4 4 3 3 3 3 3 3
17 12 12 15 12 12 12 11 12 15 12 9 9 9 8 8 7 7 6 6 5 5 4 4 4 3 4 3 2 3 4 3 3 4 3 3 3 3 4 4 4 4 3 3
17 15 20 13 9 10 11 11 10 10 10 9 8 7 6 6 7 6 6 5 5 4 4 5 3 3 4 3 3 3 4 4 3 3 3 3 4 4 4 4 4 3 3 4
18 21 14 12 11 12 13 13 9 10 9 8 7 7 8 5 5 6 6 5 4 4 4 4 5 4 5 5 5 4 4 4 3 3 3 3 3 3 4 5 5 4 4 4
19 19 21 13 10 8 8 15 8 9 9 9 8 12 10 7 6 5 5 5 5 5 5 6 7 6 6 6 5 5 4 4 3 3 3 3 3 3 3 4 4 4 4 4
16 17 15 10 8 7 16 15 8 7 8 9 10 8 7 6 6 6 5 5 4 4 5 5 5 6 6 6 6 5 5 4 3 3 3 3 3 4 4 4 4 5 4 4
15 17 19 8 8 13 10 7 7 7 8 9 9 9 9 8 8 7 7 6 6 6 6 5 5 6 6 6 5 5 5 4 4 4 3 3 4 4 4 5 5 5 5 5
13 14 9 9 8 7 7 8 7 8 8 8 9 9 9 8 9 9 8 8 7 7 7 7 6 6 7 6 6 5 6 5 5 5 4 4 4 4 4 4 5 5 5 5
12 9 10 8 8 7 7 7 7 6 8 9 10 10 10 9 9 9 8 8 8 8 8 8 7 7 7 6 5 5 6 6 5 6 5 5 5 5 5 5 5 5 5 5
12 10 9 8 7 7 7 6 8 8 9 8 9 10 10 10 9 9 9 9 9 9 9 8 7 7 6 6 6 6 6 6 6 6 5 5 5 5 5 4 4 4 4 3
14 10 11 9 7 7 8 7 8 9 9 9 9 10 9 10 10 10 10 9 9 9 8 8 7 7 7 6 6 7 8 9 8 8 7 7 7 6 8 7 7 8 7 5
11 9 8 8 7 7 8 8 7 8 9 11 10 10 10 10 10 10 10 10 9 9 8 8 8 8 7 7 8 9 9 9 8 8 7 7 7 7 7 7 9 9 9 8
8 8 9 8 9 8 8 7 7 8 9 10 10 10 10 11 11 11 11 10 10 9 9 9 9 9 8 8 9 9 9 10 8 7 7 6 8 7 7 6 6 5 8 8
7 8 8 8 8 8 7 8 9 10 10 11 10 11 11 11 12 11 11 10 10 10 10 10 9 10 9 9 10 10 9 8 7 6 5 5 6 6 6 6 5 5 4 8
7 8 8 8 8 8 9 9 10 11 11 11 11 12 11 12 12 11 11 11 12 12 11 11 11 10 10 10 10 9 8 10 9 7 4 4 4 5 5 4 4 4 4 5
9 9 8 7 8 9 9 9 10 10 10 11 12 12 13 13 14 13 13 12 13 12 12 12 11 10 10 10 11 12 11 10 11 4 4 4 5 6 6 5 4 4 5 6
7 7 6 7 8 9 9 9 9 10 10 11 12 13 14 15 15 14 14 13 13 13 12 11 10 12 13 13 13 12 13 10 7 4 3 4 4 3 4 4 4 4 4 9
6 7 6 7 7 8 9 10 10 10 10 12 13 16 16 15 15 15 14 14 14 14 13 12 13 14 14 14 14 13 11 8 3 4 3 6 4 3 3 4 4 3 3 3
7 7 7 7 7 8 9 10 10 10 11 12 15 16 16 16 16 16 15 16 14 14 13 14 14 15 15 14 14 12 10 7 3 4 4 4 4 4 4 6 4 5 5 5
7 8 8 8 8 8 8 10 11 11 11 13 16 17 17 18 17 16 17 17 16 14 15 15 14 14 13 13 12 10 7 3 3 3 4 4 4 4 5 5 6 7 7 8
8 8 8 7 8 8 8 10 11 11 12 13 15 17 17 16 17 16 15 16 15 15 14 13 12 13 11 14 9 6 3 3 3 4 5 5 6 6 7 7 8 9 9 9
8 8 8 8 8 9 8 9 11 11 12 14 16 17 18 18 17 18 18 16 16 16 15 15 15 16 16 8 3 3 3 4 4 5 6 7 7 8 9 9 9 10 11 11
9 8 8 8 8 9 10 9 12 11 12 13 15 16 17 18 18 17 16 17 17 17 15 17 15 15 11 6 6 6 7 7 8 9 10 11 10 10 11 11 12 12 13 13
9 8 8 8 9 10 10 10 10 12 13 13 14 15 16 17 18 18 17 17 17 17 17 17 17 15 12 10 10 10 9 9 9 10 10 11 11 12 12 12 12 13 14 14
10 10 10 9 8 9 10 10 10 12 13 14 15 15 16 16 17 17 17 17 17 17 17 17 17 16 15 14 13 13 12 12 12 12 12 12 13 13 13 14 14 14 15 15
11 10 10 10 8 8 9 10 10 11 12 13 15 15 16 17 17 18 18 19 19 18 18 18 17 17 16 16 15 14 14 14 14 14 14 14 14 14 15 15 15 15 16 16

GFSNGP_con_lsi_087.txt.gz
Lid_Strength_Index
14 12 11 12 12 12 13 13 16 13 13 11 11 10 9 8 7 7 6 6 5 5 5 5 5 4 3 3 3 5 4 4 4 3 4 3 5 4 4 4 3 3 3 3
16 13 13 13 12 12 12 11 12 12 13 9 8 8 8 7 7 7 7 6 5 5 5 5 4 4 3 3 3 4 5 5 4 4 5 6 5 5 4 4 4 4 3 3
18 13 13 16 13 12 12 12 12 15 13 9 10 9 8 7 7 7 6 6 6 5 5 5 5 4 4 3 3 3 4 4 4 4 4 4 5 6 5 5 5 4 4 4
17 16 20 13 10 10 12 11 11 11 10 9 9 8 7 7 7 7 6 7 6 6 5 5 4 4 4 3 3 3 4 4 4 3 4 4 4 4 5 5 5 5 5 4
19 20 15 13 11 12 13 13 9 10 9 8 8 8 9 6 6 7 7 7 6 5 5 5 5 5 5 5 4 5 5 5 4 4 4 4 4 4 4 4 5 5 5 4
19 19 21 13 10 7 8 15 9 8 9 9 9 13 11 8 7 7 7 7 6 5 5 5 5 5 6 6 6 6 5 5 4 4 4 5 5 5 4 4 4 4 4 4
16 17 15 10 8 7 16 15 9 8 8 9 10 9 8 8 8 8 8 7 6 6 6 5 5 5 6 6 6 5 5 5 5 5 5 5 5 4 5 5 4 4 4 4
15 17 19 8 8 12 10 9 8 8 7 8 8 9 10 9 9 9 9 8 8 9 8 7 6 7 7 6 5 5 5 5 5 5 5 5 5 5 5 4 5 5 5 6
13 15 10 9 9 8 8 9 8 8 8 8 9 10 9 9 9 9 9 9 8 8 8 7 7 6 7 7 6 6 6 6 5 5 5 5 5 5 5 5 5 5 5 5
12 10 10 9 8 8 7 9 7 7 8 9 9 9 9 10 9 9 9 9 8 8 8 8 8 8 7 7 6 7 7 7 6 6 6 6 5 5 5 5 5 5 5 5
12 11 10 9 8 8 8 7 7 7 7 8 9 9 10 10 10 9 9 9 9 9 9 9 8 8 7 7 6 7 6 6 6 6 6 6 5 5 6 5 5 5 5 5
15 11 11 10 9 8 9 9 8 8 9 7 8 10 10 11 10 10 9 9 10 10 10 9 8 8 7 7 7 7 7 7 7 7 7 7 7 7 7 7 7 8 8 6
10 10 9 8 8 8 9 9 8 8 8 9 8 9 10 10 10 9 9 9 10 10 10 9 9 8 8 7 7 8 9 10 9 9 8 8 8 8 8 8 9 9 8 8
9 7 9 8 9 8 8 7 7 8 8 8 9 9 10 11 11 10 11 10 10 10 10 10 10 9 8 9 9 10 9 10 8 8 7 7 7 7 8 8 8 8 9 8
7 7 8 7 7 7 7 8 9 9 9 10 9 10 11 12 12 12 11 11 11 11 11 10 11 11 10 11 10 11 10 10 8 8 7 7 7 7 7 7 7 6 6 9
8 7 7 8 7 7 8 8 10 10 10 10 11 12 12 11 12 13 13 13 14 14 13 13 13 13 12 11 11 10 10 11 11 9 8 7 6 7 7 7 7 7 6 5
9 9 8 8 8 8 8 9 10 10 11 11 12 12 13 14 13 14 14 13 13 14 13 13 14 13 12 11 12 12 12 11 12 10 4 5 6 5 6 6 7 6 5 4
7 7 7 8 8 8 9 10 10 11 12 12 12 13 14 15 15 15 14 14 14 13 13 13 13 13 14 14 13 13 13 12 10 5 3 4 4 5 6 5 5 4 3 6
7 7 8 8 8 8 9 10 11 11 12 13 14 16 16 15 15 15 14 14 14 15 14 15 15 15 15 14 14 13 13 11 4 4 4 6 4 4 5 5 4 3 5 6
8 8 8 7 7 8 9 9 11 11 12 14 15 16 16 16 16 16 16 15 15 15 15 16 16 15 15 14 14 13 11 6 4 4 4 4 4 4 4 6 4 4 4 4
8 9 8 8 9 8 9 9 11 12 13 14 16 16 16 16 16 16 16 16 16 15 16 15 14 13 13 13 12 9 4 3 3 4 4 4 4 5 5 6 5 5 6 6
9 9 9 9 9 9 9 10 12 12 13 14 16 16 16 16 17 16 15 16 16 16 16 15 14 15 13 15 9 3 3 4 5 5 5 5 6 7 7 8 8 8 9 9
10 9 8 9 9 10 9 11 12 12 14 15 16 17 18 17 17 18 19 16 16 17 16 16 16 16 16 7 5 6 6 6 7 8 8 8 9 9 10 10 10 10 11 11
10 9 9 9 9 10 10 10 12 13 13 14 15 16 17 17 18 18 17 17 17 17 17 17 16 15 12 8 7 8 8 9 8 9 10 12 11 11 12 12 12 12 13 13
10 10 10 10 11 10 11 10 11 13 14 15 15 16 17 17 18 18 18 18 18 17 17 18 17 16 14 12 11 11 11 10 10 10 11 12 12 13 13 13 13 13 14 14
11 11 11 10 10 10 11 11 11 13 14 16 16 16 16 17 18 18 18 18 19 19 19 18 18 17 16 15 14 13 13 12 12 13 13 13 13 14 14 14 14 15 15 15
12 11 12 11 10 10 10 11 11 12 13 16 17 17 17 18 18 19 19 19 19 19 19 19 18 18 17 17 16 15 15 15 15 14 14 14 14 14 14 14 15 15 15 16